{"data":{"norad_id":55628,"epoch":"2026-05-25T01:07:13.933056Z","epoch_age_seconds":81270,"freshness":"FRESH","line1":"1 55628U 23021A   26145.04668904  .00000378  00000+0  39433-4 0  9992","line2":"2 55628  69.9998  12.0208 0002829 269.6302  90.4533 14.98330512179737","mean_motion":14.98330512,"eccentricity":0.0002829,"inclination_deg":69.9998,"raan_deg":12.0208,"arg_perigee_deg":269.6302,"mean_anomaly_deg":90.4533,"bstar":3.9433e-5,"rev_number":17973,"period_min":96.106966284619,"perigee_km":570.08809850617,"apogee_km":574.02051674803,"semimajor_km":6950.1913076271,"source":"CELESTRAK","updated_at":"2026-05-25T13:38:17.846393Z"}}